{"data":{"norad_id":65637,"epoch":"2026-05-25T04:07:13.031904Z","epoch_age_seconds":66980,"freshness":"FRESH","line1":"1 65637U 25210R   26145.17167861  .00022553  00000+0  67648-3 0  9992","line2":"2 65637  53.1607 310.9199 0001065  97.0380 263.0744 15.34405714 39453","mean_motion":15.34405714,"eccentricity":0.0001065,"inclination_deg":53.1607,"raan_deg":310.9199,"arg_perigee_deg":97.038,"mean_anomaly_deg":263.0744,"bstar":0.00067648,"rev_number":3945,"period_min":93.847408600044,"perigee_km":461.95770937076,"apogee_km":463.41480472451,"semimajor_km":6840.8232570476,"source":"CELESTRAK","updated_at":"2026-05-25T13:38:20.884205Z"}}